Home > Weather > Potsdam > Past weeks

Flag for Germany Past Weather in Potsdam, Brandenburg, Germany — Yesterday and Last 2 Weeks

Now
75 °F

Partly sunny.


Feels Like: 78 °F
Forecast: 53 / 69 °F
Wind: 10 mph from Southwest

Location: Berlin-Tegel

Current Time: Jul 2, 2016 at 11:38:47 AM

Latest Report: Jul 2, 2016 at 11:20 AM


Visibility: N/A

Pressure: 29.83 "Hg

Humidity: 57%

Dew Point: 59 °F

Location of PotsdamLocation

Past Weather in Potsdam — Graph

°F

Potsdam Temperature Yesterday

Maximum temperature yesterday: 81 °F (at 1:20 PM)
Minimum temperature yesterday: 61 °F (at 3:50 AM)
Average temperature yesterday: 73 °F

High & Low Weather Summary for the Past Weeks

 TemperatureHumidityPressure
High95 °F (Jun 24, 3:50 PM)94% (Jun 17, 10:50 AM)30.24 "Hg (Jun 17, 10:50 AM)
Low48 °F (Jun 20, 4:50 AM)23% (Jun 24, 4:20 PM)29.50 "Hg (Jun 17, 10:20 AM)
Average69 °F61%30.00 "Hg
* Reported Jun 17 10:20 AM — Jul 2 10:20 AM, Potsdam, Weather by CustomWeather, © 2016

Note: Actual official high and low records may vary slightly from our data, if they occured in-between our weather recording intervals... More about our weather records

Advertising

Potsdam Weather History for the Previous 24 Hours

Scroll right to see more
 ConditionsComfort  
Time TempWeatherWind HumidityBarometerVisibility
10:20 AM
Sat, Jul 2
73 °FSunny.10 mph61%29.83 "Hg10 mi
9:50 AM75 °FSprinkles. Partly sunny.14 mph54%29.83 "HgN/A
9:20 AM75 °FPartly sunny.13 mph54%29.83 "HgN/A
8:50 AM73 °FPartly sunny.12 mph57%29.83 "HgN/A
8:20 AM72 °FSunny.9 mph57%29.83 "Hg10 mi
7:50 AM72 °FSunny.10 mph57%29.83 "Hg10 mi
7:20 AM72 °FPassing clouds.6 mph57%29.83 "HgN/A
6:50 AM70 °FSunny.8 mph64%29.83 "Hg10 mi
6:20 AM68 °FSunny.7 mph64%29.83 "Hg10 mi
5:50 AM68 °FSunny.7 mph64%29.86 "Hg10 mi
5:20 AM66 °FClear.6 mph68%29.86 "Hg10 mi
4:50 AM66 °FClear.6 mph68%29.86 "Hg10 mi
4:20 AM66 °FClear.7 mph68%29.86 "Hg10 mi
3:50 AM66 °FClear.8 mph68%29.86 "Hg10 mi
3:20 AM68 °FClear.8 mph64%29.86 "Hg10 mi
2:50 AM70 °FClear.8 mph60%29.86 "Hg10 mi
2:20 AM70 °FClear.7 mph60%29.89 "Hg10 mi
1:50 AM70 °FClear.7 mph60%29.89 "Hg10 mi
1:20 AM72 °FClear.7 mph57%29.89 "Hg10 mi
12:50 AM72 °FClear.6 mph57%29.89 "Hg10 mi
12:20 AM73 °FClear.7 mph53%29.89 "Hg10 mi
11:50 PM
Fri, Jul 1
73 °FClear.6 mph53%29.89 "Hg10 mi
11:20 PM75 °FClear.7 mph47%29.89 "Hg10 mi
10:50 PM75 °FPassing clouds.6 mph47%29.92 "HgN/A
10:20 PM75 °FSunny.7 mph47%29.92 "Hg10 mi
9:50 PM75 °FSunny.5 mph47%29.92 "Hg10 mi
9:20 PM77 °FSunny.5 mph44%29.92 "Hg10 mi
8:50 PM77 °FSunny.8 mph44%29.92 "Hg10 mi
8:20 PM79 °FPassing clouds.8 mph39%29.92 "HgN/A
7:50 PM79 °FPassing clouds.7 mph39%29.92 "HgN/A
7:20 PM79 °FPartly sunny.10 mph39%29.92 "HgN/A
6:50 PM81 °FPartly sunny.9 mph39%29.92 "HgN/A
6:20 PM81 °FPassing clouds.10 mph42%29.92 "HgN/A
5:50 PM81 °FPassing clouds.10 mph42%29.92 "HgN/A
5:20 PM79 °FPartly sunny.12 mph42%29.92 "HgN/A
4:50 PM81 °FPartly sunny.8 mph39%29.92 "HgN/A
4:20 PM79 °FBroken clouds.7 mph48%29.92 "HgN/A
3:50 PM75 °FSprinkles. Broken clouds.10 mph57%29.95 "HgN/A
3:20 PM79 °FScattered showers. Broken clouds.14 mph39%29.92 "HgN/A
2:50 PM79 °FPartly sunny.13 mph42%29.92 "HgN/A
2:20 PM81 °FPartly sunny.12 mph39%29.95 "HgN/A
1:50 PM79 °FPartly sunny.14 mph39%29.95 "HgN/A
1:20 PM81 °FPartly sunny.14 mph42%29.95 "HgN/A
12:50 PM79 °FPartly sunny.13 mph45%29.95 "HgN/A
12:20 PM77 °FPartly sunny.14 mph44%29.95 "HgN/A
11:50 AM77 °FPartly sunny.13 mph47%29.95 "HgN/A
11:20 AM75 °FPartly sunny.12 mph47%29.95 "HgN/A
Weather by CustomWeather, © 2016

See weather overviewHow to use our weather pages